Theta_e
295 295 295 295 295 294 293 293 293 292 291 290 289 289 288 288 288 288 287 287 287 287 286 286 285 284 283 282 282 282 281 281 282 283 284 282 280 280 280 279 279 279 279 280 279 279 279 279 279 281 283 283 282 281 280 280 279 279 279 279 280 279 279 278 279 279 278 278 279
293 294 295 296 295 294 293 292 292 291 290 289 289 289 288 288 288 287 287 286 287 287 286 286 284 283 282 282 282 282 281 281 281 281 281 281 280 280 279 279 279 279 280 279 279 279 279 278 279 281 283 283 281 280 280 280 279 279 279 279 279 279 279 279 279 279 279 279 278
292 293 293 293 293 292 292 291 290 288 287 288 288 288 288 288 288 287 287 286 285 285 285 285 284 282 281 281 281 281 281 281 281 281 280 280 280 279 279 279 279 279 280 279 278 278 278 278 279 282 283 283 281 280 280 280 280 280 279 279 280 280 281 281 280 280 279 280 278
292 292 292 291 290 290 290 290 288 287 287 287 286 286 287 287 287 286 285 284 283 284 283 283 282 282 282 281 280 280 281 283 283 281 280 280 280 279 279 279 279 279 278 278 278 277 277 277 279 281 282 280 279 280 281 281 280 280 280 280 280 281 281 281 281 281 281 280 279
291 291 291 290 289 289 289 288 288 287 287 287 287 287 286 286 286 285 284 285 284 284 283 281 281 281 282 282 281 280 280 282 284 282 280 280 279 279 279 278 279 279 278 278 278 277 277 277 279 281 281 280 281 281 281 279 279 279 279 280 281 281 281 281 281 281 281 281 279
289 289 288 288 288 288 288 287 287 287 287 287 286 286 286 286 286 285 285 284 283 283 283 284 284 283 283 281 280 280 280 280 280 279 279 279 279 279 279 278 278 278 278 278 277 277 277 277 280 281 281 282 281 281 280 278 278 278 279 280 280 281 280 280 280 280 280 279 278
289 288 287 287 287 287 287 286 286 286 286 286 285 285 285 284 284 284 283 283 283 283 284 285 283 282 281 280 280 280 280 279 279 278 278 279 278 279 279 279 278 278 278 278 277 277 277 277 279 281 283 284 283 281 280 278 278 278 278 279 280 280 280 279 279 279 279 278 277
288 287 287 287 286 286 286 286 286 286 286 286 285 284 283 283 283 283 283 283 283 283 283 283 281 280 280 280 280 280 279 279 279 279 278 278 278 278 278 278 278 278 278 278 277 277 277 277 280 281 281 281 282 282 280 278 278 277 277 278 279 280 279 278 278 278 278 277 276
287 286 286 286 286 286 285 285 285 285 285 284 284 283 283 283 283 283 283 283 283 283 282 281 280 279 279 279 279 279 279 279 279 278 278 278 279 278 278 278 278 278 278 278 278 277 277 278 280 280 280 281 281 281 279 278 277 277 277 278 279 279 278 278 277 277 277 276 276
286 286 285 285 285 285 285 285 285 285 284 284 283 284 284 286 284 283 283 283 283 282 281 280 279 279 279 279 279 279 278 278 278 278 278 279 280 279 278 278 278 278 278 278 278 278 278 279 279 279 279 279 279 278 278 277 277 277 277 279 279 278 277 277 277 277 277 277 276
286 286 286 286 285 285 285 285 285 285 285 284 284 284 285 285 283 283 283 283 282 281 280 280 279 279 279 279 279 279 278 278 278 278 278 279 279 279 278 278 278 278 278 278 278 278 278 279 279 279 278 279 278 278 278 277 277 277 277 277 277 277 277 277 277 277 277 277 276
286 285 285 285 285 285 285 285 285 285 284 284 283 283 282 282 282 282 282 281 281 281 280 279 279 279 279 279 278 279 279 277 277 278 278 278 278 278 278 278 278 278 278 278 278 278 279 279 278 278 278 278 279 279 278 278 277 277 277 277 277 277 277 278 278 277 277 277 277
286 285 285 285 285 285 285 285 284 283 283 283 282 282 282 281 282 282 282 281 281 281 280 279 279 279 279 279 278 278 277 277 277 278 279 279 278 278 278 278 278 278 278 278 278 278 278 278 278 278 278 278 279 279 278 277 277 277 277 277 277 277 278 278 278 278 277 277 276
285 285 285 285 285 285 284 284 284 283 283 282 282 282 281 281 282 282 281 281 281 280 279 279 280 280 279 278 278 278 277 277 277 278 278 279 278 278 278 278 278 278 278 278 279 278 278 278 278 278 278 278 278 278 278 277 277 277 277 277 278 278 278 279 278 277 277 276 277
285 285 284 284 284 284 284 283 284 283 282 282 282 281 281 282 283 282 281 280 280 279 279 278 279 279 279 279 278 278 277 277 277 278 278 279 278 278 278 278 278 279 279 279 278 278 278 278 278 278 278 278 278 278 278 277 277 277 278 278 278 278 279 279 278 278 277 277 276
284 284 284 284 284 284 284 283 284 283 282 282 281 281 281 281 282 282 282 280 279 279 278 278 278 278 278 279 279 278 277 277 278 278 278 279 279 278 278 278 279 279 278 278 278 278 278 278 278 278 277 277 278 278 278 278 278 278 278 278 278 278 279 279 279 278 277 277 277
284 284 284 284 284 283 283 283 283 283 282 281 281 281 281 281 281 282 283 281 280 279 279 278 278 277 277 278 279 278 278 278 278 278 278 278 278 278 278 278 279 279 278 278 278 278 278 278 278 278 277 277 278 278 278 278 279 279 279 279 279 279 279 280 279 279 278 277 278
284 284 284 283 283 283 283 283 282 282 282 281 281 281 280 280 280 281 281 281 279 279 279 278 277 277 277 277 277 278 279 278 278 278 278 278 278 278 278 278 278 278 278 278 278 278 278 278 278 278 278 278 278 278 279 279 279 279 279 279 279 279 279 279 278 278 278 277 278
283 283 283 283 283 283 283 283 282 282 281 281 280 280 280 280 279 279 279 279 279 279 278 278 277 277 277 277 277 278 280 279 278 278 278 278 278 278 278 278 278 278 278 277 278 278 278 278 278 278 278 279 279 279 279 279 279 279 279 279 279 279 279 278 278 278 277 277 278
283 283 283 283 283 283 283 283 282 281 280 280 280 280 280 280 279 279 279 279 279 278 277 277 277 277 277 277 277 278 278 279 278 278 278 278 278 278 278 278 278 278 278 277 277 278 278 278 278 279 279 279 280 280 280 280 279 279 279 279 279 278 278 278 278 277 277 277 277
283 283 283 283 283 282 282 282 281 280 280 280 280 280 280 279 279 279 279 279 278 278 277 277 277 277 277 277 278 278 278 279 279 278 278 278 278 278 278 278 278 278 278 277 278 278 278 279 279 279 280 280 280 280 280 280 280 279 279 279 279 278 278 278 277 277 277 277 277
283 283 282 282 282 282 281 281 280 280 280 280 280 280 280 279 279 278 278 278 278 277 277 277 277 277 277 277 278 278 278 279 278 278 278 278 278 279 278 278 277 277 277 277 278 278 279 279 280 280 281 281 280 280 280 280 280 280 279 279 278 278 277 277 277 277 277 277 277
282 282 282 282 282 283 283 281 280 280 280 280 280 280 279 279 278 277 277 277 278 277 277 277 277 277 277 277 277 278 278 278 278 278 278 278 278 278 278 277 277 277 277 278 278 279 280 281 282 282 282 282 281 281 281 281 280 280 279 279 278 278 278 277 277 277 277 277 277
282 282 282 282 282 282 281 281 281 281 281 280 280 279 279 278 278 277 277 277 277 277 277 277 277 277 277 277 277 277 278 278 278 278 278 278 278 278 277 277 277 277 278 279 281 283 284 285 285 284 284 283 283 282 282 281 280 280 279 279 279 278 278 277 277 277 277 276 276
282 282 282 282 282 281 281 281 281 280 280 279 279 279 278 278 278 277 277 277 277 277 277 277 277 278 278 278 278 277 278 278 278 278 278 278 278 277 277 278 278 278 279 281 286 288 289 289 288 287 286 285 284 283 282 281 281 280 279 279 279 279 278 278 277 277 276 276 276
282 282 282 281 281 281 281 280 280 280 280 279 279 279 278 278 277 277 277 277 277 277 277 277 277 279 280 278 278 278 278 277 277 277 277 277 277 277 277 278 279 279 280 284 287 289 290 291 291 290 287 285 284 284 283 282 281 280 280 279 279 279 278 278 278 277 277 276 276
282 282 281 281 281 281 280 280 280 280 279 279 279 279 278 277 277 277 277 277 277 277 277 277 278 280 281 278 278 278 278 277 277 277 277 276 277 277 277 278 278 279 282 286 288 289 290 291 291 291 289 286 285 284 283 283 281 281 280 279 279 279 278 278 277 277 277 276 276
282 282 281 281 281 280 280 280 280 280 280 279 279 279 278 277 277 277 277 277 277 277 278 278 279 279 279 278 278 277 277 277 277 277 277 276 276 276 277 278 278 280 283 287 289 289 290 291 291 291 290 288 286 284 283 282 282 281 280 280 279 278 277 277 277 276 276 276 277
282 281 281 281 281 280 280 280 280 280 280 279 279 279 278 278 277 278 278 278 278 278 278 278 279 278 278 278 277 277 277 277 277 277 276 276 277 277 277 278 278 280 284 288 289 289 290 290 290 290 290 290 287 285 283 282 282 281 280 280 279 278 277 276 276 276 276 277 279
282 281 281 281 281 281 280 280 280 280 280 280 279 278 278 278 278 278 278 278 277 278 278 278 278 278 277 277 277 277 277 277 276 276 276 276 277 278 278 279 278 280 283 287 289 289 289 290 290 290 290 290 288 285 283 282 281 280 280 280 279 278 277 276 276 276 277 279 280
282 281 282 281 281 281 281 281 281 280 280 279 279 278 278 278 278 277 277 277 277 279 279 278 277 277 277 277 277 277 277 277 276 276 277 276 278 278 278 277 277 279 283 287 288 289 289 289 289 289 289 290 288 285 282 281 280 280 280 280 278 278 278 279 278 279 279 279 279
282 282 282 282 281 281 281 281 281 280 279 279 278 278 278 277 277 277 276 277 277 277 277 277 277 277 277 277 277 277 277 277 277 277 277 278 277 277 276 277 277 279 283 287 288 288 289 289 289 289 289 289 288 285 281 280 279 279 279 279 279 279 280 280 280 280 279 279 278
282 282 282 282 281 281 281 281 280 280 279 278 278 277 277 277 276 276 276 277 277 277 277 277 277 277 277 277 277 277 277 277 278 278 279 278 277 276 276 277 277 280 284 287 288 288 288 288 289 289 289 289 287 283 280 279 279 279 280 280 280 280 280 279 280 279 279 278 278
282 282 282 281 281 280 280 279 279 278 278 278 277 277 276 276 276 276 277 278 278 277 277 277 277 277 277 277 277 277 277 279 278 277 276 276 275 276 276 276 277 281 285 287 287 288 288 288 288 288 289 289 286 282 280 278 279 280 280 280 280 280 280 279 279 279 278 278 278
282 281 281 280 280 280 279 279 278 278 278 277 277 277 276 276 276 277 277 279 278 277 276 276 276 276 276 276 276 276 277 278 277 276 276 276 276 276 276 276 277 280 285 287 287 287 287 288 288 288 288 288 284 281 279 279 279 279 279 279 279 279 279 279 279 279 278 278 279
282 281 281 280 280 279 279 278 278 277 277 277 277 277 276 276 276 276 277 279 278 277 276 275 275 275 276 276 276 277 278 277 276 276 276 277 276 276 275 275 276 279 284 286 287 287 287 287 288 288 288 286 283 281 280 280 280 279 279 279 279 279 279 279 279 279 279 279 279
282 281 281 280 279 279 278 277 277 277 277 277 276 276 276 276 275 275 276 278 276 276 276 276 276 276 276 276 276 277 277 276 276 276 276 277 276 275 275 275 275 278 282 285 286 287 287 287 288 288 287 285 282 281 280 280 279 279 278 278 278 278 278 279 279 279 279 280 281
281 281 280 280 279 278 277 277 277 277 277 276 276 275 275 275 275 275 276 278 276 276 276 276 276 276 277 276 276 276 276 276 276 276 276 276 275 275 275 276 276 277 280 284 285 286 286 287 287 287 287 284 283 281 281 280 280 279 279 279 279 279 279 280 280 281 281 282 283
281 280 280 279 278 278 277 277 277 277 276 276 275 275 274 274 274 275 276 278 276 276 276 276 276 276 276 277 277 277 276 276 276 276 276 275 275 277 278 277 276 277 279 283 285 286 286 287 287 287 287 285 284 282 282 281 280 280 279 279 280 280 280 281 282 282 282 282 285
280 280 279 278 278 277 277 277 276 276 275 275 275 275 274 275 276 277 277 277 276 275 276 276 276 276 277 278 277 276 275 275 275 275 275 275 276 279 280 278 276 276 278 282 284 285 286 287 287 287 287 285 284 283 282 281 281 280 280 280 281 281 281 282 283 283 283 281 282
279 279 278 278 277 277 277 276 276 275 274 274 274 275 276 277 277 276 276 275 275 275 275 275 275 275 276 277 276 275 274 275 275 275 275 276 276 278 279 276 275 275 276 279 283 285 286 287 287 287 287 285 284 283 282 282 281 280 280 281 281 282 282 283 283 282 281 279 279
Wind_Speed
7 7 6 6 6 5 5 4 4 5 4 4 5 4 4 4 4 3 3 3 3 3 3 2 2 2 1 1 1 1 1 1 1 1 1 1 1 1 1 1 1 1 2 2 2 2 2 1 1 1 1 1 1 2 2 1 0 0 1 1 1 1 2 2 3 3 3 3 3
8 7 7 7 7 6 5 4 4 4 4 4 4 4 4 4 4 4 3 3 3 3 3 2 2 1 1 1 1 1 1 2 1 1 1 1 1 1 1 1 1 2 2 2 2 2 2 1 1 2 2 1 1 2 2 1 0 1 1 2 2 2 2 2 3 3 3 3 3
8 8 7 7 7 6 6 5 5 5 4 4 4 4 4 4 4 4 3 3 2 2 2 2 2 1 1 1 0 1 1 1 2 2 2 2 2 2 2 2 2 2 2 2 1 1 1 1 1 2 2 2 2 2 2 2 1 1 2 3 2 2 2 3 3 3 3 3 3
8 8 8 8 8 8 7 6 6 6 5 4 4 4 4 4 4 3 3 3 2 2 2 2 2 1 1 1 1 1 1 1 2 2 2 2 2 2 2 2 2 2 2 1 1 1 1 1 1 2 2 2 2 3 3 2 2 2 2 2 2 2 3 3 3 3 3 3 3
7 7 7 7 8 8 7 7 8 7 6 5 5 4 4 4 3 3 3 3 2 2 2 2 1 1 1 1 2 2 2 2 2 2 2 2 2 2 2 2 2 2 2 1 1 1 1 2 2 2 2 2 2 3 3 2 2 2 2 2 2 2 3 3 3 3 3 3 2
7 6 6 6 8 8 7 7 8 7 6 5 5 5 5 4 3 3 3 3 2 2 1 1 2 2 1 2 2 2 2 2 2 2 2 2 2 2 2 2 2 2 2 2 2 2 1 2 2 2 2 2 2 3 2 2 2 2 3 3 3 3 3 3 3 3 3 3 3
8 8 7 7 8 8 8 7 7 7 6 6 7 7 6 4 4 4 3 3 2 2 1 1 2 2 2 2 2 2 2 2 2 2 2 2 2 2 2 2 2 2 2 2 2 2 2 2 2 3 4 4 3 3 3 2 2 3 4 4 4 3 3 3 3 3 3 4 4
8 8 8 8 8 9 9 8 7 6 6 5 7 7 6 5 5 4 3 3 2 2 1 1 2 2 2 2 2 2 2 2 2 2 1 1 2 2 2 2 3 3 3 2 2 3 3 2 3 3 3 4 4 4 4 4 3 4 4 5 4 4 3 3 3 3 3 4 4
7 7 7 8 8 8 9 8 8 7 7 6 6 6 6 5 5 4 4 3 2 2 1 2 2 2 2 3 2 2 1 1 1 1 1 1 2 2 2 3 3 4 4 3 3 3 3 3 3 3 4 3 4 4 5 5 4 4 5 5 5 4 4 4 3 3 3 4 4
8 7 7 7 8 8 8 8 8 8 8 7 6 5 5 5 4 4 3 2 2 2 2 2 2 2 2 2 2 1 1 1 1 1 1 1 2 2 2 3 4 4 4 4 3 3 3 3 4 4 4 4 4 5 6 5 5 5 5 4 5 5 6 5 4 4 4 4 4
9 8 8 8 8 8 8 8 7 7 7 7 6 5 4 4 4 3 2 2 3 2 2 1 2 2 2 1 1 1 0 0 0 0 1 1 2 2 2 3 3 4 5 5 4 3 3 4 4 5 6 5 5 5 6 6 5 6 6 5 5 6 6 6 6 5 4 4 4
9 8 8 8 8 8 8 8 7 6 7 7 5 5 4 3 3 3 3 3 3 2 2 1 1 2 1 1 1 0 0 0 0 1 1 2 2 2 3 3 4 4 5 5 4 3 3 4 5 6 7 7 6 5 6 6 6 6 7 6 6 6 6 7 7 5 4 3 4
9 8 8 8 8 9 8 8 6 6 6 6 5 4 3 3 2 2 3 3 3 2 1 1 1 1 1 1 0 0 0 0 0 1 1 2 2 3 3 4 4 5 5 5 4 4 4 4 5 6 7 7 6 6 6 6 6 7 7 7 7 7 7 8 8 6 5 4 4
8 8 8 8 8 8 8 7 6 6 6 6 4 4 3 2 2 2 3 3 3 2 1 1 1 1 1 1 0 0 0 0 1 1 2 3 3 3 4 4 5 5 5 5 4 4 4 5 5 6 7 7 7 7 7 7 6 7 7 7 8 8 8 8 8 7 6 5 5
8 8 8 8 8 8 7 7 6 5 5 5 4 3 3 2 2 2 3 3 3 2 1 1 1 1 1 0 0 0 0 0 1 2 3 3 4 4 4 5 5 5 5 5 5 5 5 5 6 6 6 7 8 8 8 7 7 7 7 7 8 8 8 8 8 7 6 6 5
8 7 7 7 7 7 7 6 5 5 5 4 3 3 3 2 2 2 3 3 2 2 2 2 1 1 1 1 0 0 0 1 1 2 3 4 4 5 5 5 6 6 6 6 6 5 5 5 5 6 6 7 7 8 8 8 7 7 7 7 8 8 8 8 8 7 7 6 6
8 7 7 7 8 8 7 6 5 5 4 4 3 3 2 2 2 2 3 3 2 2 2 2 1 1 1 1 1 1 1 1 2 3 3 4 4 5 5 5 6 6 6 6 6 6 7 6 6 6 6 7 7 8 8 8 7 7 8 8 8 8 8 8 8 8 7 7 7
7 7 7 7 8 8 7 6 5 5 4 4 3 2 2 2 2 2 2 2 2 2 2 1 1 1 1 1 1 1 1 2 3 3 3 3 4 4 5 5 5 5 5 5 6 6 7 7 7 7 7 7 7 7 7 7 7 7 8 8 8 8 8 8 8 7 7 7 8
7 7 7 7 7 7 7 6 5 5 4 3 3 3 2 2 3 3 2 2 2 2 1 1 1 1 1 1 1 1 2 2 2 3 3 3 3 4 5 5 5 6 6 5 6 6 7 7 8 8 7 7 7 7 7 7 7 7 7 7 7 7 8 8 7 7 7 7 8
7 7 7 7 7 7 6 5 5 4 3 3 3 3 3 3 3 3 3 2 2 1 1 1 1 1 1 2 2 2 2 2 2 3 3 3 4 4 5 5 5 6 6 6 6 6 7 7 8 8 8 8 8 8 8 7 7 7 7 7 7 7 7 8 7 7 7 7 7
7 6 6 6 6 5 5 4 4 4 4 4 4 4 3 3 3 3 2 2 1 1 1 1 1 1 2 2 3 3 2 2 2 3 3 4 4 4 4 5 5 5 6 6 6 7 7 8 8 8 8 8 8 7 7 7 7 7 7 6 6 7 7 7 7 7 7 7 7
6 5 5 5 5 4 4 4 4 4 4 4 4 4 3 3 3 2 2 1 1 1 1 1 1 1 2 2 2 3 3 2 2 2 3 3 4 4 4 4 5 5 6 6 7 7 8 8 8 8 7 7 7 7 7 6 7 7 7 7 7 7 7 7 7 7 7 7 7
6 5 4 4 4 5 5 4 4 4 4 4 4 4 4 3 2 2 2 1 1 1 1 1 1 1 1 1 2 2 3 3 3 4 4 4 4 4 4 4 4 5 6 6 6 7 7 7 7 7 6 6 6 6 6 6 6 7 7 7 7 7 7 7 7 7 7 7 6
6 5 4 4 4 5 4 4 4 4 4 4 4 3 3 3 2 2 2 2 2 1 1 1 1 1 1 1 1 2 3 4 4 5 5 5 5 5 5 4 5 5 5 5 7 8 8 7 7 6 6 6 6 6 6 6 6 6 7 7 7 7 7 7 6 6 6 6 6
6 5 5 4 4 4 4 4 5 5 4 4 3 3 3 3 2 2 2 2 2 2 1 1 1 1 1 2 2 2 3 4 4 5 5 6 6 5 5 5 4 4 5 6 10 13 14 13 10 8 7 6 6 6 6 6 6 6 6 6 7 7 7 7 7 6 6 6 5
6 5 5 5 5 5 5 5 5 5 4 3 3 3 3 3 2 2 2 2 2 2 1 2 2 2 2 2 3 3 3 3 4 4 5 6 6 6 5 5 4 4 5 8 13 16 17 17 16 13 10 7 6 6 6 6 6 6 6 6 7 7 7 7 7 6 5 5 5
5 5 5 5 6 6 5 5 5 4 4 4 4 4 3 2 2 2 2 2 1 1 1 2 2 2 3 2 3 4 4 3 3 4 4 5 5 6 6 5 5 5 6 11 15 16 17 17 17 17 14 9 7 6 6 6 6 6 6 6 7 7 7 7 7 6 5 4 4
5 5 5 6 6 6 5 5 5 5 4 4 4 3 3 2 2 2 2 2 2 2 2 2 2 2 2 3 3 3 3 3 3 3 4 4 5 5 5 5 5 6 9 13 16 16 17 17 17 17 16 13 8 6 5 5 6 6 6 6 7 7 7 6 5 5 5 5 4
5 6 6 7 6 5 5 5 5 5 4 4 3 3 3 3 3 2 2 2 3 3 3 2 2 2 2 3 3 3 3 3 3 3 3 4 5 5 5 6 6 7 11 15 16 16 17 17 17 18 18 16 10 6 5 5 6 6 6 6 6 6 6 5 4 4 4 4 5
6 6 7 7 6 5 5 5 4 4 4 3 3 3 3 3 3 3 3 3 2 2 2 1 2 2 3 3 3 3 3 4 3 3 4 4 5 6 6 6 6 7 10 15 16 16 17 17 17 18 18 18 12 8 5 5 5 6 6 6 6 6 6 5 4 3 4 5 6
6 6 7 7 6 5 5 4 4 4 3 3 4 4 3 3 3 2 2 2 1 1 1 1 2 3 3 3 3 3 3 4 4 4 4 5 6 6 6 7 6 8 10 15 16 16 17 17 17 18 18 18 13 8 5 5 5 6 6 6 7 6 6 4 4 5 6 7 8
6 7 7 7 6 5 4 4 4 4 4 4 4 4 3 3 2 1 1 1 1 2 2 2 3 3 4 4 3 3 4 4 4 5 5 5 5 5 6 7 6 8 10 15 16 17 17 17 17 18 18 18 13 8 5 5 5 5 6 7 7 7 7 6 6 7 7 8 8
6 6 7 6 6 5 4 4 4 4 4 4 4 3 3 2 1 1 1 1 1 1 2 2 3 3 4 4 4 4 4 5 5 5 6 6 5 5 6 6 6 8 11 15 16 17 17 17 17 18 18 18 12 7 5 5 5 5 5 6 7 7 7 7 7 7 8 8 8
6 6 6 6 5 5 4 4 4 4 4 4 3 3 2 2 2 2 2 1 1 1 1 1 1 2 2 2 3 3 4 5 5 5 5 6 5 6 6 5 5 8 12 16 16 17 17 17 17 18 18 17 10 6 5 5 5 5 6 6 7 7 7 7 7 8 8 9 9
6 6 6 6 5 5 4 4 4 4 4 4 3 3 2 2 1 1 1 1 1 1 1 1 1 1 1 2 2 2 3 4 5 6 6 6 6 6 6 6 6 9 13 16 16 17 17 17 18 18 17 14 8 5 5 5 5 6 6 7 7 7 7 8 8 8 8 9 9
6 6 6 6 5 5 4 4 4 4 4 4 3 3 2 2 1 1 1 1 1 1 1 2 2 2 2 2 2 2 3 4 5 6 6 6 6 6 6 6 7 10 13 16 16 17 17 17 18 18 16 11 6 5 5 5 5 6 6 7 7 7 8 8 8 8 8 8 8
6 6 6 6 5 5 4 4 4 4 4 3 2 2 1 2 2 2 1 1 1 2 2 2 2 2 3 3 3 3 4 4 4 5 6 6 6 6 6 7 7 9 12 15 16 17 17 17 18 17 15 10 6 5 5 4 4 5 6 7 7 8 8 8 8 8 7 7 8
5 6 6 6 5 4 4 4 4 4 3 2 1 0 1 1 2 2 1 1 1 2 2 2 3 3 3 4 4 5 5 5 4 5 6 6 6 6 6 6 7 8 10 14 16 17 17 17 18 17 15 10 7 6 5 5 5 5 6 6 7 8 8 8 7 6 6 7 10
5 6 6 6 5 5 4 4 3 3 2 1 0 1 1 1 2 2 1 1 0 1 2 2 3 4 4 5 5 5 5 6 5 5 5 6 6 7 7 6 7 8 10 13 15 16 17 17 18 18 16 11 8 6 5 5 6 6 7 7 8 8 8 7 6 6 6 7 11
5 5 6 6 5 5 4 4 3 2 1 1 0 1 1 1 2 2 1 1 0 0 1 2 3 4 5 5 5 5 6 6 6 5 5 6 7 8 9 7 7 8 10 13 15 16 17 17 18 18 16 11 8 6 5 5 6 7 8 8 9 8 8 6 5 5 5 6 9
4 5 5 5 5 4 4 3 2 1 1 1 1 1 1 1 2 1 1 1 1 1 1 2 3 4 5 5 5 5 5 6 7 6 6 7 7 8 9 7 7 8 9 11 14 15 17 17 18 18 16 12 9 6 5 6 7 8 9 9 9 8 6 6 5 5 6 7 8
Wind_Direction
124 127 129 131 130 128 126 126 127 129 131 133 133 132 129 124 124 124 123 120 126 130 134 136 133 133 136 150 136 122 111 98 88 80 75 72 48 18 2 0 9 9 2 352 348 344 338 331 316 298 279 269 279 281 279 268 260 287 305 306 293 281 275 283 284 283 280 275 263
125 126 127 126 124 122 119 117 117 117 119 122 125 127 127 125 125 126 127 126 129 129 129 125 123 127 134 155 146 126 114 102 91 78 64 53 38 22 15 11 14 13 6 354 346 339 331 326 318 307 298 293 309 308 298 272 252 310 315 308 292 281 278 283 280 276 272 269 260
126 125 124 124 126 125 124 122 119 116 114 112 113 116 119 120 123 125 127 126 122 120 119 122 125 131 136 143 122 101 99 99 85 67 50 34 24 19 16 10 6 3 0 353 340 329 320 309 304 305 308 313 320 316 308 294 303 313 309 300 291 289 290 291 287 281 276 273 260
126 126 127 129 131 132 131 130 126 122 118 114 109 107 108 111 114 118 120 119 111 109 115 123 130 131 129 121 97 78 70 73 70 59 44 26 17 13 9 8 2 355 348 343 333 323 313 301 297 303 310 314 313 309 306 306 317 312 299 289 290 291 292 293 291 288 284 280 261
124 127 130 132 132 130 128 127 127 125 123 118 112 108 106 107 110 114 115 113 110 110 112 119 123 121 110 100 89 75 62 54 56 53 42 23 10 2 0 4 355 346 337 335 332 327 321 316 312 309 307 302 300 297 296 301 313 308 300 295 294 291 291 292 292 289 288 283 270
122 120 120 122 121 119 118 120 122 123 123 118 115 114 115 116 118 118 119 118 117 111 103 106 107 103 93 78 70 63 55 46 47 47 37 17 2 355 354 350 340 337 336 338 337 337 336 336 330 324 317 312 305 299 297 300 310 310 306 304 298 295 293 291 290 290 290 287 281
121 120 119 119 117 116 116 117 118 118 117 115 117 120 124 125 122 121 120 118 108 98 88 90 89 86 79 69 59 51 42 35 35 37 32 12 355 350 347 337 335 338 342 344 343 344 345 343 336 328 323 322 316 311 308 314 316 312 308 304 299 296 292 287 287 290 291 286 280
114 116 118 119 118 118 118 120 118 116 115 115 121 125 128 127 124 120 113 102 97 93 88 80 77 76 76 72 63 52 40 28 22 20 18 7 351 342 338 337 341 343 345 349 351 347 341 336 331 325 322 322 319 315 314 317 316 310 303 297 296 294 291 287 288 289 287 283 280
108 109 111 112 113 115 117 118 117 117 116 116 121 125 128 126 123 118 111 105 105 98 85 74 73 74 73 72 68 58 45 34 18 6 1 0 348 343 341 345 346 345 344 349 353 348 340 333 328 322 317 316 313 311 309 311 310 305 299 294 294 294 293 290 289 287 284 280 277
116 114 112 109 110 111 111 110 110 110 112 113 115 117 119 119 115 112 111 113 103 86 70 66 68 70 69 69 65 58 48 44 21 0 351 351 347 346 345 347 347 344 342 344 348 346 340 333 326 319 315 312 308 305 303 303 303 299 296 295 297 298 298 294 291 288 285 279 273
122 121 119 117 116 113 110 106 105 105 106 109 108 107 105 105 102 103 104 101 88 77 65 55 66 70 70 67 60 53 36 54 14 352 344 340 343 345 345 346 346 343 341 339 342 343 339 333 324 319 315 312 308 305 303 302 301 299 296 294 297 298 298 296 294 292 288 282 275
121 120 119 118 118 114 110 107 106 104 105 107 105 102 97 94 97 100 97 88 85 80 68 44 61 69 71 61 48 24 11 11 347 345 344 341 342 344 345 346 346 344 340 337 338 339 336 329 322 317 314 311 309 306 304 303 302 300 298 296 297 297 297 296 296 294 290 285 278
120 119 118 117 115 111 108 107 106 106 106 107 105 102 98 94 96 99 97 91 92 87 72 42 54 63 64 47 20 1 349 329 321 342 348 348 349 349 349 347 346 343 340 336 336 335 332 324 317 313 311 309 307 304 302 301 300 298 297 297 297 297 295 295 295 294 293 289 279
118 119 119 117 113 110 108 107 107 108 107 107 105 102 99 93 89 89 92 92 92 86 68 43 43 46 49 34 5 345 329 310 330 350 355 356 355 354 351 347 345 343 339 335 334 331 326 318 312 308 305 304 302 301 299 297 295 293 292 293 294 294 293 293 293 294 293 288 278
116 117 117 115 111 109 108 109 109 109 108 107 104 100 95 89 77 77 81 84 83 76 61 45 32 24 18 16 1 322 309 321 357 4 3 358 356 354 351 346 343 341 338 334 331 327 321 313 307 302 300 299 298 297 296 295 291 289 287 287 288 289 290 291 291 291 288 281 275
116 116 114 112 110 108 109 110 111 110 108 107 102 95 90 84 72 71 75 79 75 65 54 42 23 4 353 352 354 345 338 356 12 11 7 359 354 351 348 345 341 338 334 331 327 322 316 309 303 299 295 293 293 293 293 292 290 288 286 284 284 285 286 287 288 287 282 274 268
116 115 113 111 110 111 111 112 111 111 110 110 103 95 90 87 74 70 73 78 74 63 50 34 14 358 352 350 350 355 2 11 14 11 6 358 351 346 343 340 336 333 330 327 323 318 313 307 303 298 293 290 289 289 289 289 288 287 285 284 283 283 283 284 284 282 278 270 262
116 114 113 112 113 114 115 115 115 115 115 114 109 100 93 88 82 76 71 68 71 66 52 20 0 355 356 351 343 355 12 15 9 4 359 352 346 341 339 335 331 328 326 322 317 312 308 305 302 299 296 291 289 287 286 286 286 285 284 284 283 282 281 281 280 277 273 267 260
117 115 114 115 116 118 118 119 118 119 118 117 110 100 89 82 85 81 72 60 61 65 60 21 352 348 349 351 348 2 16 17 4 356 351 346 343 341 338 333 329 326 323 318 311 306 303 301 299 297 295 292 290 288 287 285 285 284 283 282 282 281 280 279 276 273 267 262 259
119 118 118 118 118 118 118 118 118 117 115 110 101 93 85 76 76 76 73 61 56 60 64 39 4 354 352 355 2 8 10 8 1 355 349 346 345 342 337 332 328 323 319 314 308 304 301 299 296 294 291 290 289 288 288 287 285 284 283 282 280 279 278 277 275 272 267 261 258
119 119 119 118 116 116 115 113 111 109 105 98 92 87 81 72 67 68 69 65 59 59 59 43 20 9 4 5 8 5 359 356 1 358 352 348 345 340 335 331 326 322 317 314 308 304 300 296 293 290 288 286 286 286 287 288 288 287 286 285 282 280 277 276 275 273 269 264 260
119 118 116 113 112 111 110 106 104 101 97 92 86 81 77 69 64 62 62 59 57 57 52 32 17 13 11 11 7 0 353 352 358 358 354 350 343 338 335 333 328 322 318 313 308 302 297 293 289 287 285 286 287 288 289 291 292 292 291 289 287 284 282 279 276 272 269 266 264
118 114 111 109 108 107 106 104 101 97 93 87 81 77 74 68 63 57 52 48 48 44 34 8 0 0 3 10 9 3 359 357 355 353 351 350 344 339 337 336 330 323 316 310 303 299 296 294 293 292 293 295 297 298 298 298 298 297 297 295 293 291 288 284 280 276 272 269 267
115 113 110 106 105 105 106 104 100 96 91 86 81 78 74 69 60 52 47 43 38 28 13 353 345 344 354 10 16 15 11 5 356 350 346 345 343 340 337 334 328 319 312 305 307 310 312 313 310 309 309 310 310 309 307 305 303 301 299 299 298 297 295 291 287 283 280 276 272
114 112 108 105 105 104 102 100 98 96 92 87 82 78 72 64 57 52 47 41 30 15 1 352 350 355 8 15 14 16 14 9 358 349 343 340 339 338 337 333 326 319 311 306 315 320 324 327 326 325 323 322 319 317 314 310 306 303 301 301 301 301 301 299 297 293 288 283 278
112 108 105 104 102 101 99 98 99 97 94 88 81 74 69 62 57 53 49 39 20 5 356 1 2 8 13 16 10 8 6 2 355 347 341 336 335 334 333 330 325 319 314 314 321 325 328 329 330 330 329 326 324 321 318 315 312 309 307 304 303 303 303 304 304 302 298 290 282
110 107 104 100 98 98 99 101 99 95 91 85 79 75 70 65 59 55 49 36 12 358 1 12 8 8 10 15 11 4 357 349 346 342 337 333 330 328 325 322 320 316 316 319 323 326 329 331 332 333 333 330 327 325 322 321 320 317 315 311 307 304 302 301 300 300 298 294 285
112 109 106 101 99 99 100 99 95 92 87 84 82 80 76 68 62 55 46 27 13 8 8 7 358 358 5 13 7 357 347 339 337 335 333 330 325 321 317 315 314 314 316 321 325 328 330 332 333 334 334 333 329 327 327 326 326 324 321 316 309 304 299 295 293 292 291 290 289
113 111 108 104 104 102 99 95 94 92 89 86 85 82 76 70 62 52 39 26 22 16 6 349 343 353 6 5 353 345 339 335 333 333 332 330 324 318 314 311 310 311 315 321 325 329 332 333 334 335 334 335 334 335 337 335 332 329 324 318 311 304 298 291 285 282 284 292 303
113 112 110 109 107 103 97 94 94 92 89 85 81 76 71 65 54 43 33 26 18 5 345 321 343 356 359 350 342 339 335 331 330 331 330 327 321 317 314 312 309 309 314 321 326 330 333 334 335 334 334 335 336 338 341 339 333 328 323 318 309 301 293 287 284 289 299 311 318
114 113 112 110 106 102 98 95 93 89 84 79 74 70 67 61 51 42 31 18 343 322 317 338 357 355 348 339 340 337 333 328 328 327 324 319 316 313 310 308 304 305 312 322 328 331 333 334 334 334 334 334 338 341 343 337 331 326 320 315 309 305 301 303 311 318 322 323 321
115 114 112 110 107 104 100 95 90 85 80 75 71 67 64 60 53 41 13 320 307 319 337 356 357 350 343 340 340 336 331 327 324 320 316 314 312 309 307 307 303 305 313 324 329 332 333 333 333 333 333 335 339 342 341 332 326 319 315 312 312 314 319 325 328 327 325 321 316
115 114 113 111 108 104 97 90 86 83 80 75 69 65 58 48 29 4 343 318 316 332 346 353 349 342 337 334 333 330 326 321 316 314 312 311 308 306 305 305 303 309 318 326 330 332 332 332 332 331 332 335 338 340 337 326 321 317 316 315 317 320 323 325 325 322 317 311 306
115 114 112 110 107 101 93 86 83 81 78 71 63 56 49 39 17 1 346 329 312 307 315 326 322 316 313 314 318 318 316 315 313 312 311 309 307 306 306 307 305 314 321 327 330 331 331 331 330 330 331 335 337 336 330 322 319 317 315 314 314 315 316 316 314 310 305 300 299
118 115 111 107 103 98 92 85 81 77 72 65 52 42 35 29 10 342 320 308 304 304 301 297 293 292 296 296 301 307 311 313 311 310 308 307 308 308 308 307 304 313 320 325 328 329 329 329 329 329 331 334 334 331 324 320 317 314 312 309 309 308 307 305 301 297 294 293 295
120 116 112 107 101 95 91 87 80 73 67 58 46 31 15 352 317 287 279 291 316 327 322 313 317 322 323 318 313 311 310 309 308 307 306 307 309 310 310 307 305 312 318 323 325 327 327 328 327 328 330 331 330 325 321 318 315 311 308 305 303 301 298 294 290 289 289 293 296
119 116 113 108 103 98 94 89 80 72 64 55 45 24 351 321 299 286 280 296 338 338 331 323 327 327 324 319 314 308 304 302 303 303 304 306 308 309 308 307 305 309 314 319 322 324 325 326 326 327 329 329 326 323 319 316 313 309 306 302 298 294 291 288 287 289 294 298 300
115 115 114 112 109 105 98 88 80 73 67 57 35 319 292 294 290 286 284 293 339 335 329 324 323 317 313 312 310 306 303 299 299 300 302 304 305 306 306 306 305 306 310 315 318 321 323 325 325 327 328 327 325 322 319 316 313 310 306 303 298 293 290 290 294 299 302 301 302
114 114 115 115 114 109 99 87 84 83 85 79 311 285 280 282 277 275 274 267 279 314 317 315 310 308 308 313 314 312 309 305 302 301 302 303 303 306 308 307 304 304 307 312 315 318 321 323 324 326 327 326 324 321 318 316 313 311 308 305 301 297 296 299 305 308 305 298 304
112 112 113 115 114 109 100 91 95 109 133 151 261 286 280 269 266 269 275 281 264 286 298 301 301 303 309 317 317 315 312 310 308 306 305 305 306 310 312 308 304 303 304 308 311 315 318 321 323 325 327 325 323 320 317 315 314 311 309 306 304 304 306 310 313 313 308 302 307
109 109 109 110 109 106 101 98 108 136 165 170 214 250 259 260 267 280 300 329 320 309 302 302 303 306 310 317 316 314 313 312 311 310 309 311 310 312 312 307 303 300 301 303 307 311 316 321 323 325 326 325 323 321 319 316 313 310 307 305 305 307 312 318 320 319 316 314 311